Regional Weather Roundup
Issued by NWS Memphis, TN

Home | Current Version | Previous Version | Text Only | Print | Product List | Glossary On
Versions: 1 2 3 4 5 6 7 8 9 10 11 12 13 14 15 16 17 18 19 20 21 22 23 24 25 26 27 28 29 30 31 32 33 34 35 36 37 38 39 40 41 42 43 44 45 46 47 48 49 50
000
ASUS44 KMEG 201910
RWRMEG
MEMPHIS CWA HOURLY WEATHER ROUNDUP
NATIONAL WEATHER SERVICE MEMPHIS TN
100 PM CST SAT DEC 20 2014

...WEST TENNESSEE...

CITY           SKY/WX    TMP DP  RH WIND       PRES   REMARKS
MEMPHIS INTL   CLOUDY    49  32  52 NE6       30.23F
NWS MEMPHIS      N/A     48 N/A N/A MISG        N/A
JACKSON        CLOUDY    48  30  49 NE3       30.24F
LEXINGTON      CLOUDY    43  28  56 NE7       30.23F
SAVANNAH       SUNNY     48  28  46 N7        30.22F
DYERSBURG      CLOUDY    45  25  45 E5        30.26F
UNION CITY     CLOUDY    41  30  65 E5        30.24F
PARIS          CLOUDY    37  28  70 CALM      30.24F
HUNTINGDON     CLOUDY    40  28  62 CALM      30.25F


...EASTERN ARKANSAS...

CITY           SKY/WX    TMP DP  RH WIND       PRES   REMARKS
JONESBORO      CLOUDY    44  36  73 E6        30.25F
WEST MEMPHIS   CLOUDY    46  34  62 N6        30.23F
BATESVILLE     CLOUDY    45  34  65 E3        30.24F
NEWPORT        CLOUDY    43  36  76 CALM      30.26F
WALNUT RIDGE   CLOUDY    43  34  70 CALM      30.24F
BLYTHEVILLE    CLOUDY    45  34  65 CALM      30.26F
SEARCY         CLOUDY    45  36  70 NE3       30.26F
STUTTGART      CLOUDY    45  34  65 NE3       30.25F
PINE BLUFF     CLOUDY    47  36  65 E3        30.24F
MONTICELLO     SUNNY     52  37  56 E9        30.20F


...NORTH MISSISSIPPI...

CITY           SKY/WX    TMP DP  RH WIND       PRES   REMARKS
TUPELO         SUNNY     51  32  48 NE6       30.21F
OXFORD         SUNNY     50  32  50 N5        30.22F
OLIVE BRANCH   PTSUNNY   46  34  61 N7        30.23F
TUNICA         CLOUDY    46  36  66 N5        30.24F
CLARKSDALE     CLOUDY    50  37  62 CALM      30.23F
CORINTH        SUNNY     50  32  50 VRB8      30.21F
GRENADA        SUNNY     52  36  54 CALM      30.22F
GREENWOOD      SUNNY     54  36  50 VRB7      30.20F
COLUMBUS       SUNNY     53  36  51 VRB6      30.20F
STARKVILLE     FAIR      52  36  54 N6        30.20F
GOLDEN TRIANGL SUNNY     54  37  54 NE9       30.19F


...SOUTHEAST MISSOURI...

CITY           SKY/WX    TMP DP  RH WIND       PRES   REMARKS
WEST PLAINS    CLOUDY    42  36  79 NE3       30.20F
POPLAR BLUFF   CLOUDY    42  31  64 S5        30.24F
CAPE GIRARDEAU CLOUDY    42  31  64 CALM      30.25F


...NORTHWEST ALABAMA...

CITY           SKY/WX    TMP DP  RH WIND       PRES   REMARKS
MUSCLE SHOALS  SUNNY     50  31  48 VRB5      30.22F


...MIDDLE TENNESSEE...

CITY           SKY/WX    TMP DP  RH WIND       PRES   REMARKS
NASHVILLE      PTSUNNY   46  28  49 VRB3      30.24F
CLARKSVILLE    CLOUDY    39  28  64 NW3       30.26F


...WESTERN KENTUCKY...

CITY           SKY/WX    TMP DP  RH WIND       PRES   REMARKS
PADUCAH        PTSUNNY   43  28  55 CALM      30.25F
FORT CAMPBELL  CLOUDY    38  27  63 VRB1      30.25F


...CENTRAL ARKANSAS...

CITY           SKY/WX    TMP DP  RH WIND       PRES   REMARKS
LITTLE ROCK    CLOUDY    47  35  63 CALM      30.24F


SKY/WX REPORTED AS FAIR MEANS FEW OR NO CLOUDS BELOW
12 THOUSAND FEET.



USA.gov is the U.S. government's official web portal to all federal, state and local government web resources and services.